TimeEST,TemperatureF,Dew PointF,Humidity,Sea Level PressureIn,VisibilityMPH,Wind Direction,Wind SpeedMPH,Gust SpeedMPH,PrecipitationIn,Events,Conditions,WindDirDegrees,DateUTC
12:53 AM,10.9,6.1,81,30.24,10.0,Calm,Calm,-,N/A,,Clear,0,2013-01-06 05:53:00
1:53 AM,9.0,5.0,84,30.22,10.0,Calm,Calm,-,N/A,,Clear,0,2013-01-06 06:53:00
2:53 AM,12.0,7.0,80,30.22,10.0,Calm,Calm,-,N/A,,Clear,0,2013-01-06 07:53:00
3:53 AM,17.1,10.0,74,30.17,10.0,Calm,Calm,-,N/A,,Clear,0,2013-01-06 08:53:00
4:53 AM,18.0,10.9,74,30.14,10.0,Calm,Calm,-,N/A,,Overcast,0,2013-01-06 09:53:00
5:53 AM,19.0,12.0,74,30.11,10.0,Calm,Calm,-,N/A,,Overcast,0,2013-01-06 10:53:00
6:53 AM,19.9,12.0,71,30.09,10.0,Calm,Calm,-,0.00,Snow,Light Snow,0,2013-01-06 11:53:00
7:28 AM,19.4,15.8,86,30.07,1.2,Calm,Calm,-,0.00,Snow,Light Snow,0,2013-01-06 12:28:00
7:53 AM,19.9,15.1,81,30.07,1.2,Variable,3.5,-,0.00,Snow,Light Snow,0,2013-01-06 12:53:00
8:13 AM,19.4,15.8,86,30.06,0.5,Calm,Calm,-,0.00,Snow,Snow,0,2013-01-06 13:13:00
8:18 AM,19.4,15.8,86,30.06,0.5,Calm,Calm,-,0.00,Fog-Snow,Snow,0,2013-01-06 13:18:00
8:26 AM,19.4,15.8,86,30.05,1.5,Calm,Calm,-,0.00,Snow,Light Snow,0,2013-01-06 13:26:00
8:29 AM,19.4,15.8,86,30.06,3.0,Calm,Calm,-,0.00,Snow,Light Snow,0,2013-01-06 13:29:00
8:53 AM,19.9,16.0,85,30.06,10.0,Calm,Calm,-,0.00,Snow,Light Snow,0,2013-01-06 13:53:00
9:53 AM,21.9,17.1,82,30.05,5.0,Calm,Calm,-,0.00,Snow,Light Snow,0,2013-01-06 14:53:00
10:28 AM,23.0,17.6,80,30.02,9.0,Calm,Calm,-,0.00,,Overcast,0,2013-01-06 15:28:00
10:53 AM,24.1,19.0,81,30.00,10.0,Calm,Calm,-,0.00,,Overcast,0,2013-01-06 15:53:00
11:08 AM,24.8,19.4,80,29.99,10.0,Calm,Calm,-,N/A,,Mostly Cloudy,0,2013-01-06 16:08:00
11:53 AM,28.0,19.9,72,29.96,10.0,Calm,Calm,-,0.02,,Partly Cloudy,0,2013-01-06 16:53:00
12:09 PM,28.4,21.2,74,29.95,10.0,West,5.8,-,N/A,,Mostly Cloudy,280,2013-01-06 17:09:00
12:28 PM,28.4,21.2,74,29.94,10.0,Variable,4.6,-,N/A,,Scattered Clouds,0,2013-01-06 17:28:00
12:53 PM,28.9,19.9,69,29.95,10.0,Variable,3.5,-,N/A,,Clear,0,2013-01-06 17:53:00
1:53 PM,30.9,19.9,64,29.94,10.0,WSW,5.8,-,N/A,,Clear,240,2013-01-06 18:53:00
2:53 PM,32.0,19.0,59,29.94,10.0,West,4.6,-,N/A,,Clear,270,2013-01-06 19:53:00
3:53 PM,28.0,19.9,72,29.93,10.0,Calm,Calm,-,N/A,,Clear,0,2013-01-06 20:53:00
4:53 PM,24.1,18.0,77,29.93,10.0,Calm,Calm,-,N/A,,Clear,0,2013-01-06 21:53:00
5:53 PM,23.0,18.0,81,29.96,10.0,Calm,Calm,-,N/A,,Partly Cloudy,0,2013-01-06 22:53:00
6:53 PM,24.1,19.9,84,29.95,10.0,Calm,Calm,-,N/A,,Overcast,0,2013-01-06 23:53:00
7:53 PM,24.1,19.9,84,29.96,10.0,Calm,Calm,-,N/A,,Overcast,0,2013-01-07 00:53:00
8:53 PM,25.0,21.0,85,29.95,10.0,Calm,Calm,-,N/A,,Overcast,0,2013-01-07 01:53:00
9:53 PM,26.1,21.9,84,29.95,10.0,Calm,Calm,-,N/A,,Overcast,0,2013-01-07 02:53:00
10:53 PM,26.1,21.0,81,29.95,10.0,Calm,Calm,-,N/A,,Overcast,0,2013-01-07 03:53:00
11:53 PM,27.0,21.0,78,29.96,10.0,Calm,Calm,-,N/A,,Overcast,0,2013-01-07 04:53:00